Location: Newark
(48.5497°N, 16.3978°E)
Time: 00:43:47
(UTC+00:00)

ISS - Visible Passes

Search period start: 18 November 2019 00:00
Search period end: 28 November 2019 00:00
Orbit: 412 x 421 km, 51.6° (Epoch: 18 November)

Date Brightness Start Highest point End Pass type
(mag) Time Alt. Az. Time Alt. Az. Time Alt. Az.
22 Nov -1.6 17:28:30 10° SSW 17:29:52 20° SSW 17:29:52 20° SSW visible
23 Nov -2.2 16:40:38 10° SSW 16:43:15 21° SE 16:43:36 21° SE visible
23 Nov -0.4 18:16:19 10° WSW 18:16:31 11° WSW 18:16:31 11° WSW visible
24 Nov -1.5 15:53:11 10° S 15:55:01 14° SE 15:56:50 10° ESE visible
24 Nov -2.5 17:27:55 10° WSW 17:30:10 39° SW 17:30:10 39° SW visible
25 Nov -3.2 16:39:37 10° SW 16:42:51 45° SSE 16:43:46 35° ESE visible
25 Nov -0.4 18:16:15 10° W 18:16:40 13° W 18:16:40 13° W visible
26 Nov -2.5 15:51:30 10° SSW 15:54:29 30° SE 15:57:17 11° E visible
26 Nov -2.7 17:27:42 10° WSW 17:30:11 45° W 17:30:11 45° W visible
27 Nov -3.8 16:39:12 10° WSW 16:42:33 89° S 16:43:40 40° ENE visible
27 Nov -0.4 18:16:14 10° WNW 18:16:34 12° WNW 18:16:34 12° WNW visible
